Location: Austin
(30.3000°N, 97.7500°W)
Time: 23:45:57
(UTC-06:00)

Cosmos 1844 - Pass Details

Date: 04 November 2025
Orbit: 821 x 866 km, 70.9° (Epoch: 15 November)

Event Time Altitude Azimuth Distance (km) Brightness Sun altitude
Rises 18:18:17 0° 207° (SSW) 3,427 7.5 -8.6°
Reaches altitude 10° 18:20:46 10° 211° (SSW) 2,496 6.8 -9.1°
Maximum altitude 18:26:27 61° 291° (WNW) 973 4.3 -10.3°
Drops below altitude 10° 18:32:10 10° 12° (NNE) 2,509 5.9 -11.5°
Sets 18:34:40 0° 16° (NNE) 3,446 6.6 -12.1°
